PBO Station Position Time Series. Reference Frame : NAM14
Format Version,1.1.1
4-character ID,P030
Station name,KemmererLFWY2005
Begin Date, 2005-09-10
End Date, 2023-06-26
Release Date, 2023-06-27
Reference position, 41.7498149980 North Latitude, -110.5128104856 East Longitude, 2149.78439 meters elevation,
Date, North (mm), East (mm), Vertical (mm), North Std. Deviation (mm), East Std. Deviation (mm),              Vertical Std. Deviation (mm), Quality,
2005-09-10,0.00, 0.00, 0.00, 2.17, 1.59, 7.18, repro,
2005-09-11,1.77, -0.59, -1.53, 2.17, 1.59, 7.12, repro,
2005-09-12,0.63, 0.02, -6.28, 2.17, 1.58, 7.13, repro,
2005-09-13,0.51, -0.62, -5.86, 2.28, 1.68, 7.47, repro,
2005-09-14,1.30, -0.77, -5.55, 2.23, 1.64, 7.38, repro,
2005-09-15,0.75, -0.04, -7.16, 2.21, 1.63, 7.32, repro,
2005-09-16,2.05, -0.03, -4.57, 2.21, 1.64, 7.35, repro,
2005-09-17,2.57, -0.80, -1.92, 2.11, 1.56, 7.03, repro,
2005-09-18,2.22, -1.45, -5.62, 2.11, 1.56, 7.04, repro,
2005-09-19,1.82, 0.11, -8.20, 2.18, 1.61, 7.31, repro,
2005-09-20,0.95, -0.41, -2.05, 2.12, 1.58, 7.09, repro,
2005-09-21,1.34, -2.06, 1.17, 2.14, 1.63, 7.31, repro,
2005-09-22,1.24, -0.92, -10.06, 2.11, 1.57, 7.07, repro,
2005-09-23,0.98, -0.68, -4.54, 2.12, 1.57, 7.04, repro,
2005-09-24,1.65, 0.14, -7.87, 2.16, 1.62, 7.24, repro,
2005-09-25,0.99, 0.72, -0.70, 2.17, 1.63, 7.31, repro,
2005-09-26,1.18, -0.39, -4.55, 2.16, 1.63, 7.29, repro,
2005-09-27,0.94, 0.12, -3.60, 2.18, 1.65, 7.45, repro,
2005-09-28,2.05, -1.22, -4.57, 2.21, 1.60, 7.34, repro,
2005-09-29,1.36, -0.51, -4.93, 2.21, 1.59, 7.24, repro,
2005-09-30,0.91, -0.92, 3.43, 2.14, 1.58, 7.11, repro,
2005-10-01,0.99, 0.34, 6.15, 2.13, 1.58, 7.10, repro,
2005-10-02,1.84, 2.18, -3.82, 2.16, 1.62, 7.27, repro,
2005-10-03,2.32, 1.20, -0.48, 2.15, 1.62, 7.26, repro,
2005-10-04,1.60, 0.89, -9.37, 2.18, 1.60, 7.22, repro,
2005-10-05,1.59, 0.52, -10.70, 2.21, 1.58, 7.29, repro,
2005-10-06,2.79, -0.13, -7.48, 2.15, 1.57, 7.08, repro,
2005-10-07,2.19, 0.43, -1.07, 2.20, 1.58, 7.32, repro,
2005-10-08,0.85, 0.18, 4.53, 2.18, 1.60, 7.31, repro,
2005-10-09,1.08, -0.16, -4.33, 2.12, 1.57, 7.05, repro,
2005-10-10,2.73, -0.61, -4.01, 2.13, 1.58, 7.05, repro,
2005-10-11,1.86, 0.31, -5.50, 2.17, 1.61, 7.22, repro,
2005-10-12,2.57, 0.25, -5.83, 2.17, 1.61, 7.25, repro,
2005-10-13,0.60, 0.13, -6.85, 2.16, 1.62, 7.19, repro,
2005-10-14,0.39, 0.19, -1.43, 2.14, 1.58, 7.09, repro,
2005-10-15,1.40, -0.33, -2.33, 2.22, 1.63, 7.48, repro,
2005-10-16,1.26, -0.17, -7.54, 2.22, 1.65, 7.45, repro,
2005-10-17,1.35, -0.11, -6.25, 2.18, 1.62, 7.28, repro,
2005-10-18,2.24, -1.45, 2.10, 2.27, 1.70, 7.64, repro,
2005-10-19,1.77, -0.72, -1.70, 2.24, 1.64, 7.51, repro,
2005-10-20,0.28, -0.63, -2.95, 2.29, 1.61, 7.53, repro,
2005-10-21,1.88, -0.32, -4.30, 2.25, 1.68, 7.62, repro,
2005-10-22,2.78, -0.55, -7.81, 2.16, 1.58, 7.13, repro,
2005-10-23,2.89, 0.09, -7.74, 2.16, 1.63, 7.21, repro,
2005-10-24,1.45, -0.09, -6.57, 2.22, 1.69, 7.48, repro,
2005-10-25,1.21, 0.35, -4.70, 2.17, 1.63, 7.29, repro,
2005-10-26,1.47, -0.74, -3.16, 2.20, 1.68, 7.44, repro,
2005-10-27,1.72, 0.18, -7.02, 2.15, 1.62, 7.24, repro,
2005-10-28,2.29, -0.94, -2.08, 2.13, 1.58, 7.05, repro,
2005-10-29,1.45, -0.56, -4.33, 2.18, 1.64, 7.32, repro,
2005-10-30,1.42, 1.67, -5.51, 2.13, 1.58, 7.05, repro,
2005-10-31,1.12, 0.71, -8.67, 2.27, 1.72, 7.62, repro,
2005-11-01,3.02, 2.70, -1.11, 2.30, 1.76, 7.76, repro,
2005-11-02,2.58, -0.95, -3.59, 2.28, 1.81, 7.75, repro,
2005-11-03,2.32, -1.34, 1.76, 2.28, 1.77, 7.54, repro,
2005-11-04,2.15, -0.44, 5.62, 2.22, 1.75, 7.50, repro,
2005-11-05,0.26, -0.35, 2.19, 2.25, 1.75, 7.52, repro,
2005-11-06,1.67, -0.37, 4.91, 2.25, 1.76, 7.56, repro,
2005-11-07,2.29, 0.97, -5.41, 2.25, 1.75, 7.55, repro,
2005-11-08,3.27, -1.54, -4.29, 2.39, 1.87, 8.09, repro,
2005-11-09,2.39, 0.71, -9.92, 2.29, 1.82, 7.79, repro,
2005-11-10,1.96, -0.73, -7.52, 2.38, 1.85, 8.13, repro,
2005-11-11,2.83, -0.91, -3.82, 2.28, 1.80, 7.77, repro,
2005-11-12,0.90, -1.21, 0.55, 2.15, 1.68, 7.18, repro,
2005-11-13,1.68, -0.87, -7.19, 2.19, 1.72, 7.42, repro,
2005-11-14,1.22, -0.13, -5.94, 2.16, 1.64, 7.20, repro,
2005-11-15,3.73, -0.49, -16.86, 2.19, 1.65, 7.31, repro,
2005-11-16,2.69, 1.22, -19.78, 2.17, 1.67, 7.37, repro,
2005-11-17,2.74, 1.03, -16.80, 2.10, 1.58, 7.01, repro,
2005-11-18,2.26, -0.66, -12.55, 2.12, 1.59, 7.10, repro,
2005-11-19,2.90, -1.57, -13.50, 2.13, 1.59, 7.10, repro,
2005-11-20,2.46, -1.62, -17.96, 2.18, 1.64, 7.32, repro,
2005-11-21,2.56, 0.47, -17.75, 2.24, 1.64, 7.55, repro,
2005-11-22,2.47, -0.42, -14.64, 2.19, 1.68, 7.39, repro,
2005-11-23,2.41, -0.56, -11.79, 2.15, 1.66, 7.30, repro,
2005-11-24,2.92, -0.59, -10.54, 2.23, 1.72, 7.64, repro,
2005-11-25,2.36, -0.36, -4.29, 2.17, 1.61, 7.26, repro,
2005-11-26,1.93, 0.04, 0.02, 2.25, 1.70, 7.62, repro,
2005-11-27,2.80, -0.93, -2.69, 2.16, 1.60, 7.21, repro,
2005-11-28,2.02, -0.06, -6.85, 2.16, 1.64, 7.31, repro,
2005-11-29,2.47, -0.11, -4.36, 2.19, 1.65, 7.35, repro,
2005-11-30,2.58, -1.07, 3.01, 2.19, 1.64, 7.37, repro,
2005-12-01,1.75, -0.48, -9.41, 2.17, 1.60, 7.24, repro,
2005-12-02,0.96, -0.03, -0.27, 2.16, 1.59, 7.18, repro,
2005-12-03,1.54, -1.53, -3.16, 2.16, 1.61, 7.23, repro,
2005-12-04,1.54, -1.72, -9.41, 2.15, 1.59, 7.15, repro,
2005-12-05,0.80, -0.35, -11.82, 2.15, 1.59, 7.14, repro,
2005-12-06,1.43, -0.35, -9.90, 2.21, 1.61, 7.31, repro,
2005-12-07,1.48, -0.62, -8.96, 2.27, 1.64, 7.55, repro,
2005-12-08,0.69, -1.35, -10.86, 2.20, 1.63, 7.33, repro,
2005-12-09,0.90, -0.60, -5.56, 2.15, 1.59, 7.14, repro,
2005-12-10,2.03, -1.61, -9.84, 2.14, 1.58, 7.12, repro,
2005-12-11,0.57, -1.38, -4.25, 2.14, 1.58, 7.09, repro,
2005-12-12,1.69, -0.70, -5.46, 2.14, 1.59, 7.12, repro,
2005-12-13,1.23, -0.98, -1.13, 2.13, 1.57, 7.08, repro,
2005-12-14,2.01, -1.83, -8.22, 2.34, 1.75, 7.93, repro,
2005-12-15,2.54, -1.19, -7.05, 2.22, 1.63, 7.31, repro,
2005-12-16,2.26, -1.63, -4.40, 2.12, 1.56, 7.01, repro,
2005-12-17,1.85, -1.41, -6.08, 2.31, 1.78, 7.82, repro,
2005-12-18,2.00, -1.12, -8.60, 2.18, 1.68, 7.31, repro,
2005-12-19,0.81, -1.34, -12.06, 2.34, 1.79, 7.92, repro,
2005-12-20,0.95, -1.27, -10.11, 2.19, 1.67, 7.32, repro,
2005-12-21,0.83, -1.22, -11.78, 2.18, 1.67, 7.28, repro,
2005-12-22,2.35, -2.08, -4.06, 2.22, 1.70, 7.40, repro,
2005-12-23,2.00, -2.48, -4.76, 2.21, 1.64, 7.25, repro,
2005-12-24,2.13, -1.43, -9.30, 2.35, 1.70, 7.83, repro,
2005-12-25,1.14, -0.66, -8.23, 2.33, 1.73, 7.65, repro,
2005-12-26,2.19, -0.50, 1.08, 2.24, 1.63, 7.35, repro,
2005-12-27,1.39, 0.57, -7.94, 2.30, 1.67, 7.60, repro,
2005-12-28,1.01, 0.01, -4.50, 2.22, 1.63, 7.33, repro,
2005-12-29,3.02, -1.61, -9.10, 2.51, 1.89, 8.49, repro,
2005-12-30,0.42, -1.04, -4.07, 2.47, 1.78, 8.33, repro,
2005-12-31,0.29, 0.47, 4.13, 2.58, 1.87, 8.59, repro,
2006-01-01,0.40, -0.20, 1.84, 2.36, 1.71, 7.80, repro,
2006-01-02,1.11, -1.10, -3.06, 2.21, 1.66, 7.37, repro,
2006-01-03,1.74, -1.83, -0.39, 2.52, 1.87, 8.56, repro,
2006-01-04,2.67, -0.71, -12.08, 2.30, 1.75, 7.68, repro,
2006-01-05,2.02, -2.85, -16.30, 2.29, 1.69, 7.60, repro,
2006-01-06,1.65, -0.99, -14.10, 2.57, 1.92, 8.75, repro,
2006-01-07,1.72, -1.28, -5.53, 2.27, 1.71, 7.58, repro,
2006-01-08,0.19, -2.99, 0.47, 2.28, 1.70, 7.54, repro,
2006-01-09,1.13, -1.26, -6.19, 2.37, 1.81, 7.94, repro,
2006-01-10,0.52, 0.53, -10.73, 2.33, 1.74, 7.82, repro,
2006-01-11,1.48, -0.64, -3.65, 2.32, 1.69, 7.70, repro,
2006-01-12,2.21, -1.97, -6.44, 2.28, 1.72, 7.58, repro,
2006-01-13,1.56, -2.35, -7.60, 2.56, 1.86, 8.56, repro,
2006-01-14,1.55, -0.81, -7.26, 2.30, 1.66, 7.56, repro,
2006-01-15,1.79, -0.34, -0.93, 2.19, 1.65, 7.29, repro,
2006-01-16,2.39, -1.60, -8.67, 2.31, 1.75, 7.68, repro,
2006-01-17,-0.01, -0.66, -5.06, 2.31, 1.70, 7.54, repro,
2006-01-18,2.38, -1.75, -0.38, 2.23, 1.66, 7.40, repro,
2006-01-19,2.47, -2.16, -3.44, 2.20, 1.62, 7.36, repro,
2006-01-20,0.97, -1.34, -10.16, 2.22, 1.66, 7.45, repro,
2006-01-21,0.04, -0.68, -6.97, 2.20, 1.61, 7.26, repro,
2006-01-22,1.49, -2.44, -11.56, 2.18, 1.58, 7.17, repro,
2006-01-23,0.59, -2.30, -9.79, 2.18, 1.58, 7.14, repro,
2006-01-24,2.11, -3.01, -11.86, 2.28, 1.67, 7.49, repro,
2006-01-25,1.57, -1.95, -12.11, 2.09, 1.56, 7.03, repro,
2006-01-26,0.83, -1.36, -8.10, 2.08, 1.55, 6.93, repro,
2006-01-27,0.89, -1.11, -6.66, 2.08, 1.56, 6.98, repro,
2006-01-28,1.22, -1.31, -11.17, 2.10, 1.56, 7.00, repro,
2006-01-29,1.29, -0.74, -1.48, 2.11, 1.55, 6.96, repro,
2006-01-30,1.68, -0.61, -13.07, 2.10, 1.54, 6.97, repro,
2006-01-31,2.87, -1.66, -9.23, 2.10, 1.54, 6.94, repro,
2006-02-01,0.78, -1.27, -0.56, 2.08, 1.55, 6.93, repro,
2006-02-02,0.77, -3.06, 2.29, 2.11, 1.55, 7.02, repro,
2006-02-03,2.17, -2.87, -7.70, 2.10, 1.54, 6.98, repro,
2006-02-04,2.47, -2.49, -11.17, 2.10, 1.53, 6.96, repro,
2006-02-05,1.80, -2.31, -10.55, 2.09, 1.54, 6.99, repro,
2006-02-06,1.96, -2.33, -15.79, 2.08, 1.53, 6.94, repro,
2006-02-07,2.77, -1.40, -18.61, 2.09, 1.54, 6.99, repro,
2006-02-08,2.46, -2.81, -20.31, 2.11, 1.56, 7.07, repro,
2006-02-09,2.27, -2.83, -17.63, 2.16, 1.57, 7.12, repro,
2006-02-10,3.36, -2.07, -21.56, 2.24, 1.59, 7.30, repro,
2006-02-11,2.22, -2.54, -20.35, 2.08, 1.55, 7.01, repro,
2006-02-12,2.70, -2.23, -19.34, 2.08, 1.55, 6.99, repro,
2006-02-13,1.76, -2.25, -13.61, 2.09, 1.54, 7.01, repro,
2006-02-14,2.49, -3.02, -6.88, 2.09, 1.55, 6.98, repro,
2006-02-15,2.07, -2.52, -7.48, 2.11, 1.56, 7.04, repro,
2006-02-16,2.38, -2.77, -11.91, 2.10, 1.56, 7.07, repro,
2006-02-17,3.44, -1.67, -17.24, 2.08, 1.56, 7.03, repro,
2006-02-18,2.47, -2.12, -16.13, 2.09, 1.56, 7.01, repro,
2006-02-19,2.25, -1.86, -12.02, 2.09, 1.56, 7.01, repro,
2006-02-20,2.83, -2.22, -8.07, 2.08, 1.56, 6.96, repro,
2006-02-21,1.21, -2.11, -5.14, 2.10, 1.57, 7.01, repro,
2006-02-22,2.39, -1.90, -5.01, 2.07, 1.57, 6.98, repro,
2006-02-23,3.47, -0.00, -13.13, 2.07, 1.57, 6.99, repro,
2006-02-24,2.89, -0.41, -14.68, 2.09, 1.57, 7.01, repro,
2006-02-25,2.74, -1.73, -18.23, 2.10, 1.57, 7.03, repro,
2006-02-26,2.23, -2.02, -16.88, 2.09, 1.57, 7.01, repro,
2006-02-27,2.46, -0.18, -12.79, 2.09, 1.58, 7.01, repro,
2006-02-28,0.39, -1.62, -3.08, 2.11, 1.60, 7.10, repro,
2006-03-01,1.53, -2.24, -10.67, 2.17, 1.66, 7.30, repro,
2006-03-02,1.96, -2.14, -16.63, 2.08, 1.58, 6.98, repro,
2006-03-03,1.62, -1.75, -9.32, 2.14, 1.60, 7.14, repro,
2006-03-04,2.47, -1.39, -9.16, 2.07, 1.57, 6.92, repro,
2006-03-05,2.38, -2.20, -11.63, 2.05, 1.57, 6.88, repro,
2006-03-06,1.86, -1.85, -11.98, 2.07, 1.57, 6.97, repro,
2006-03-07,1.63, -1.27, -9.66, 2.06, 1.56, 6.93, repro,
2006-03-08,2.61, -2.12, -4.10, 2.05, 1.56, 6.90, repro,
2006-03-09,2.20, -1.36, -1.50, 2.06, 1.57, 6.96, repro,
2006-03-10,2.64, -2.24, 1.08, 2.05, 1.57, 6.92, repro,
2006-03-11,3.07, -2.36, -6.98, 2.09, 1.62, 7.15, repro,
2006-03-12,2.38, -2.72, -9.40, 2.10, 1.60, 7.14, repro,
2006-03-13,1.82, -2.45, -8.71, 2.11, 1.62, 7.19, repro,
2006-03-14,2.16, -2.40, -10.33, 2.12, 1.62, 7.20, repro,
2006-03-15,3.43, -2.67, -8.49, 2.12, 1.62, 7.16, repro,
2006-03-16,3.02, -1.67, -15.29, 2.17, 1.64, 7.32, repro,
2006-03-17,2.45, -2.54, -11.68, 2.19, 1.64, 7.37, repro,
2006-03-18,3.04, -1.35, -10.94, 2.11, 1.62, 7.14, repro,
2006-03-19,2.92, -2.58, -10.98, 2.11, 1.63, 7.19, repro,
2006-03-20,3.07, -2.00, -8.95, 2.11, 1.62, 7.14, repro,
2006-03-21,3.23, -1.90, -11.17, 2.10, 1.61, 7.07, repro,
2006-03-22,2.79, -3.26, -18.29, 2.10, 1.62, 7.10, repro,
2006-03-23,2.78, -2.27, -21.09, 2.18, 1.63, 7.28, repro,
2006-03-24,1.94, -2.06, -15.28, 2.20, 1.65, 7.38, repro,
2006-03-25,2.23, -0.88, -8.75, 2.18, 1.63, 7.31, repro,
2006-03-26,2.63, -1.56, -5.16, 2.17, 1.63, 7.25, repro,
2006-03-27,2.85, -2.17, -10.50, 2.18, 1.64, 7.26, repro,
2006-03-28,2.41, -2.17, -11.68, 2.09, 1.58, 7.07, repro,
2006-03-29,1.37, -2.40, -7.57, 2.05, 1.57, 6.98, repro,
2006-03-30,1.52, -1.92, -7.62, 2.06, 1.59, 7.02, repro,
2006-03-31,2.04, -2.26, -9.74, 2.05, 1.58, 6.99, repro,
2006-04-01,1.91, -1.54, -2.48, 2.03, 1.57, 6.92, repro,
2006-04-02,2.29, -2.11, -10.97, 2.04, 1.57, 6.94, repro,
2006-04-03,1.85, -1.90, -11.62, 2.05, 1.57, 6.99, repro,
2006-04-04,2.44, -1.45, -15.16, 2.07, 1.57, 7.05, repro,
2006-04-05,2.60, -2.19, -10.00, 2.15, 1.64, 7.38, repro,
2006-04-06,1.70, -1.33, -6.28, 2.09, 1.61, 7.14, repro,
2006-04-07,3.02, -2.43, -12.42, 2.14, 1.62, 7.20, repro,
2006-04-08,1.52, -1.91, -13.29, 2.09, 1.58, 7.03, repro,
2006-04-09,2.18, -1.80, -12.30, 2.05, 1.56, 7.01, repro,
2006-04-10,3.41, -1.91, -6.05, 2.05, 1.57, 7.04, repro,
2006-04-11,1.13, -3.27, -3.64, 2.14, 1.59, 7.32, repro,
2006-04-12,0.91, -3.39, -10.86, 2.14, 1.59, 7.28, repro,
2006-04-13,2.24, -2.86, -3.64, 2.04, 1.56, 6.98, repro,
2006-04-14,2.07, -2.07, -7.72, 2.03, 1.56, 6.95, repro,
2006-04-15,1.68, -1.97, 5.01, 2.12, 1.60, 7.23, repro,
2006-04-16,1.90, -0.65, -1.58, 2.06, 1.58, 7.11, repro,
2006-04-17,2.15, -1.90, -3.59, 2.07, 1.58, 7.11, repro,
2006-04-18,1.81, -3.07, -10.58, 2.08, 1.62, 7.21, repro,
2006-04-19,2.97, -2.72, -11.70, 2.05, 1.58, 7.02, repro,
2006-04-20,2.85, -1.78, -10.70, 2.08, 1.59, 7.09, repro,
2006-04-21,2.35, -1.80, -10.46, 2.05, 1.57, 7.02, repro,
2006-04-22,2.18, -2.67, -8.85, 2.06, 1.57, 7.03, repro,
2006-04-23,2.57, -2.27, -8.34, 2.08, 1.61, 7.13, repro,
2006-04-24,2.32, -2.26, -10.25, 2.09, 1.62, 7.16, repro,
2006-04-25,2.36, -2.62, -12.86, 2.08, 1.60, 7.09, repro,
2006-04-26,2.55, -2.32, -7.42, 2.08, 1.61, 7.10, repro,
2006-04-27,2.08, -2.37, -6.61, 2.14, 1.64, 7.27, repro,
2006-04-28,2.81, -2.31, -10.77, 2.10, 1.59, 7.09, repro,
2006-04-29,3.61, -2.01, -11.78, 2.04, 1.56, 6.98, repro,
2006-04-30,3.12, -2.11, -9.71, 2.07, 1.57, 7.03, repro,
2006-05-01,3.03, -2.04, -16.23, 2.05, 1.55, 6.93, repro,
2006-05-02,2.27, -4.03, -10.48, 2.04, 1.55, 6.92, repro,
2006-05-03,2.98, -2.52, -8.44, 2.04, 1.56, 6.95, repro,
2006-05-04,3.33, -3.46, -11.57, 2.05, 1.56, 6.98, repro,
2006-05-05,2.78, -2.09, -8.02, 2.05, 1.57, 7.02, repro,
2006-05-06,3.22, -2.56, -10.36, 2.06, 1.56, 6.97, repro,
2006-05-07,2.49, -0.92, -5.61, 2.06, 1.56, 6.95, repro,
2006-05-08,0.86, -3.23, -7.77, 2.05, 1.57, 6.99, repro,
2006-05-09,2.18, -3.52, -6.42, 2.13, 1.59, 7.19, repro,
2006-05-10,2.40, -2.55, -8.46, 2.05, 1.57, 7.02, repro,
2006-05-11,3.23, -2.05, -10.59, 2.06, 1.57, 7.02, repro,
2006-05-12,3.00, -2.24, -8.64, 2.06, 1.56, 6.96, repro,
2006-05-13,2.39, -1.74, -11.69, 2.05, 1.55, 6.94, repro,
2006-05-14,2.95, -2.13, -16.36, 2.04, 1.56, 6.96, repro,
2006-05-15,3.05, -2.39, -14.62, 2.04, 1.56, 6.97, repro,
2006-05-16,2.12, -2.78, -10.44, 2.09, 1.60, 7.17, repro,
2006-05-17,2.14, -3.18, -9.34, 2.33, 1.74, 8.13, repro,
2006-05-18,2.30, -1.75, -7.29, 2.07, 1.56, 7.03, repro,
2006-05-19,2.77, -2.31, -6.68, 2.14, 1.57, 7.20, repro,
2006-05-20,3.16, -1.69, -4.71, 2.13, 1.57, 7.20, repro,
2006-05-21,2.81, -2.68, -2.26, 2.13, 1.58, 7.24, repro,
2006-05-22,3.00, -1.06, -6.84, 2.42, 1.80, 8.41, repro,
2006-05-23,0.26, 0.45, -3.09, 2.13, 1.57, 7.18, repro,
2006-05-24,2.12, -1.76, -9.61, 2.17, 1.61, 7.34, repro,
2006-05-25,1.92, -2.59, -10.75, 2.28, 1.62, 7.70, repro,
2006-05-26,1.91, -0.87, -0.30, 2.21, 1.60, 7.53, repro,
2006-05-27,1.86, -1.53, -3.82, 2.13, 1.58, 7.20, repro,
2006-05-28,2.10, -3.03, 1.29, 2.13, 1.58, 7.17, repro,
2006-05-29,2.16, -3.12, -6.22, 2.14, 1.57, 7.16, repro,
2006-05-30,0.96, -1.57, -11.74, 2.24, 1.63, 7.42, repro,
2006-05-31,1.49, -1.99, -10.20, 2.24, 1.64, 7.45, repro,
2006-06-01,2.26, -2.07, -15.06, 2.18, 1.61, 7.30, repro,
2006-06-02,2.86, -1.89, -8.50, 2.32, 1.68, 7.72, repro,
2006-06-03,1.26, -2.93, -8.42, 2.20, 1.62, 7.38, repro,
2006-06-04,1.16, -2.39, -4.67, 2.25, 1.65, 7.49, repro,
2006-06-05,0.83, -1.31, -7.90, 2.19, 1.62, 7.31, repro,
2006-06-06,2.17, -1.80, -6.63, 2.19, 1.62, 7.35, repro,
2006-06-07,3.21, -2.89, -11.03, 2.26, 1.66, 7.55, repro,
2006-06-08,1.44, -1.56, -9.28, 2.15, 1.58, 7.21, repro,
2006-06-09,1.66, -1.77, -0.38, 2.23, 1.61, 7.48, repro,
2006-06-10,-0.21, -2.88, -4.65, 2.15, 1.58, 7.24, repro,
2006-06-11,2.42, -1.16, -8.61, 2.20, 1.61, 7.30, repro,
2006-06-12,1.21, -1.81, -8.32, 2.26, 1.66, 7.53, repro,
2006-06-13,3.42, -1.25, -7.61, 2.20, 1.60, 7.36, repro,
2006-06-14,2.99, -2.65, -2.76, 2.14, 1.58, 7.19, repro,
2006-06-15,2.47, -2.81, -2.23, 2.18, 1.60, 7.27, repro,
2006-06-16,1.76, -0.89, -5.44, 2.13, 1.57, 7.17, repro,
2006-06-17,0.18, -0.65, -3.25, 2.14, 1.60, 7.24, repro,
2006-06-18,1.69, -1.55, -4.87, 2.20, 1.63, 7.47, repro,
2006-06-19,2.45, -1.59, -2.96, 2.17, 1.62, 7.40, repro,
2006-06-20,1.74, -2.02, -2.11, 2.18, 1.62, 7.43, repro,
2006-06-21,2.27, -1.62, -3.33, 2.17, 1.61, 7.38, repro,
2006-06-22,1.23, -2.58, -6.52, 2.17, 1.61, 7.39, repro,
2006-06-23,1.56, -1.65, -10.26, 2.19, 1.63, 7.45, repro,
2006-06-24,0.87, -1.95, -11.62, 2.19, 1.62, 7.48, repro,
2006-06-25,1.45, -1.22, -15.29, 2.17, 1.63, 7.46, repro,
2006-06-26,1.40, -2.44, -12.62, 2.19, 1.66, 7.54, repro,
2006-06-27,1.61, -1.84, -6.79, 2.22, 1.68, 7.56, repro,
2006-06-28,1.43, -1.57, -2.05, 2.17, 1.63, 7.43, repro,
2006-06-29,3.74, -2.93, -7.47, 2.11, 1.62, 7.29, repro,
2006-06-30,3.26, -2.83, -4.89, 2.13, 1.59, 7.33, repro,
2006-07-01,2.09, -2.69, -4.22, 2.11, 1.58, 7.23, repro,
2006-07-02,1.78, -1.86, -12.72, 2.12, 1.58, 7.26, repro,
2006-07-03,2.93, -2.26, -16.52, 2.15, 1.61, 7.43, repro,
2006-07-04,-0.37, -1.21, -5.36, 2.14, 1.59, 7.33, repro,
2006-07-05,-0.04, -1.20, -8.07, 2.13, 1.58, 7.27, repro,
2006-07-06,1.18, -2.30, -13.00, 2.11, 1.59, 7.26, repro,
2006-07-07,1.23, 0.36, -13.38, 2.12, 1.58, 7.26, repro,
2006-07-08,0.68, -0.97, -7.83, 2.13, 1.58, 7.26, repro,
2006-07-09,0.95, -0.48, -4.45, 2.15, 1.60, 7.37, repro,
2006-07-10,0.71, -0.23, -11.86, 2.14, 1.58, 7.32, repro,
2006-07-11,1.19, 0.01, -7.03, 2.19, 1.60, 7.43, repro,
2006-07-12,-0.32, -0.54, -7.91, 2.14, 1.59, 7.35, repro,
2006-07-13,2.75, -1.58, -5.57, 2.14, 1.58, 7.31, repro,
2006-07-14,0.71, -0.64, -10.36, 2.13, 1.59, 7.34, repro,
2006-07-15,-0.25, -1.51, -3.07, 2.14, 1.59, 7.34, repro,
2006-07-16,1.63, -1.20, -5.76, 2.13, 1.57, 7.26, repro,
2006-07-17,1.91, -1.81, -2.62, 2.18, 1.63, 7.56, repro,
2006-07-18,0.72, -0.79, -3.52, 2.11, 1.62, 7.33, repro,
2006-07-19,0.53, -1.96, -5.63, 2.06, 1.57, 7.05, repro,
2006-07-20,0.36, -1.00, -1.41, 2.08, 1.58, 7.11, repro,
2006-07-21,0.03, -0.80, -7.40, 2.07, 1.57, 7.02, repro,
2006-07-22,0.84, -0.42, -10.00, 2.07, 1.57, 7.01, repro,
2006-07-23,1.45, 0.68, -1.83, 2.06, 1.58, 7.05, repro,
2006-07-24,1.99, -0.36, -4.27, 2.08, 1.58, 7.07, repro,
2006-07-25,-1.83, 0.59, 0.22, 2.08, 1.59, 7.13, repro,
2006-07-26,1.33, -1.21, -7.03, 2.08, 1.58, 7.05, repro,
2006-07-27,1.15, -1.11, -3.11, 2.05, 1.56, 6.98, repro,
2006-07-28,1.20, -1.06, -3.53, 2.06, 1.56, 7.02, repro,
2006-07-29,0.65, -1.79, -0.70, 2.07, 1.58, 7.07, repro,
2006-07-30,0.34, 0.39, 3.91, 2.06, 1.57, 7.03, repro,
2006-07-31,0.11, -0.86, -0.07, 2.06, 1.57, 7.01, repro,
2006-08-01,1.13, -1.46, -2.75, 2.06, 1.56, 7.00, repro,
2006-08-02,-0.40, -0.03, 1.03, 2.14, 1.66, 7.32, repro,
2006-08-03,1.77, -0.65, -2.29, 2.10, 1.60, 7.23, repro,
2006-08-04,0.54, -0.10, -0.05, 2.18, 1.63, 7.43, repro,
2006-08-05,2.93, -1.61, -1.74, 2.16, 1.67, 7.41, repro,
2006-08-06,0.54, 0.88, -6.49, 2.13, 1.62, 7.33, repro,
2006-08-07,0.75, -1.60, -0.76, 2.08, 1.61, 7.18, repro,
2006-08-08,1.68, -0.92, -9.01, 2.07, 1.57, 7.02, repro,
2006-08-09,0.67, -0.23, -1.90, 2.07, 1.57, 7.02, repro,
2006-08-10,1.84, -0.43, -2.69, 2.08, 1.57, 7.04, repro,
2006-08-11,0.97, -0.67, -3.49, 2.07, 1.57, 7.07, repro,
2006-08-12,1.79, -0.70, -6.07, 2.34, 1.67, 7.82, repro,
2006-08-13,2.52, -0.70, -7.74, 2.10, 1.62, 7.14, repro,
2006-08-14,1.47, -0.74, -0.01, 2.11, 1.63, 7.16, repro,
2006-08-15,-0.18, -0.97, 1.63, 2.23, 1.67, 7.37, repro,
2006-08-16,1.28, -1.31, -3.05, 2.09, 1.58, 7.12, repro,
2006-08-17,0.43, 0.10, 2.15, 2.10, 1.61, 7.10, repro,
2006-08-18,1.10, -1.91, -5.38, 2.13, 1.67, 7.21, repro,
2006-08-19,2.07, -0.85, -3.75, 2.04, 1.56, 6.95, repro,
2006-08-20,1.40, -0.43, -0.81, 2.06, 1.57, 7.02, repro,
2006-08-21,1.44, -0.45, -4.46, 2.11, 1.59, 7.16, repro,
2006-08-22,2.75, -1.28, -4.78, 2.08, 1.58, 7.10, repro,
2006-08-23,0.88, -1.73, 3.26, 2.08, 1.58, 7.07, repro,
2006-08-24,1.90, -0.70, 1.88, 2.07, 1.57, 7.02, repro,
2006-08-25,1.50, -0.94, -1.10, 2.16, 1.67, 7.45, repro,
2006-08-26,1.48, -0.10, -4.89, 2.15, 1.66, 7.40, repro,
2006-08-27,1.63, -0.74, -0.60, 2.18, 1.68, 7.53, repro,
2006-08-28,0.84, -0.87, -3.21, 2.15, 1.66, 7.39, repro,
2006-08-29,0.86, 0.10, -3.17, 2.15, 1.66, 7.41, repro,
2006-08-30,0.97, -0.14, 2.89, 2.16, 1.67, 7.42, repro,
2006-08-31,1.18, 0.34, -1.35, 2.16, 1.67, 7.43, repro,
2006-09-01,1.55, -0.73, -6.57, 2.16, 1.67, 7.45, repro,
2006-09-02,1.55, -0.92, -10.14, 2.16, 1.67, 7.43, repro,
2006-09-03,1.25, -0.13, -6.09, 2.14, 1.66, 7.36, repro,
2006-09-04,1.95, -0.35, -5.59, 2.21, 1.71, 7.60, repro,
2006-09-05,0.29, -1.32, -5.37, 2.21, 1.72, 7.65, repro,
2006-09-06,1.16, -0.27, -5.61, 2.16, 1.68, 7.44, repro,
2006-09-07,2.57, -1.58, -0.46, 2.19, 1.72, 7.62, repro,
2006-09-08,1.34, -1.41, -1.66, 2.17, 1.71, 7.55, repro,
2006-09-09,1.19, -1.14, 0.12, 2.13, 1.62, 7.23, repro,
2006-09-10,1.61, 0.11, 3.79, 2.13, 1.63, 7.27, repro,
2006-09-11,1.09, 0.09, -4.06, 2.15, 1.64, 7.32, repro,
2006-09-12,1.98, -0.78, -0.28, 2.14, 1.64, 7.29, repro,
2006-09-13,2.07, -1.15, -1.49, 2.13, 1.63, 7.26, repro,
2006-09-14,2.02, -0.26, -0.93, 2.26, 1.69, 7.64, repro,
2006-09-15,3.98, -0.63, 2.91, 2.18, 1.60, 7.31, repro,
2006-09-16,1.64, 0.65, 4.16, 2.10, 1.60, 7.14, repro,
2006-09-17,1.56, 0.04, 0.09, 2.09, 1.59, 7.09, repro,
2006-09-18,2.80, -0.33, 0.19, 2.10, 1.59, 7.10, repro,
2006-09-19,2.67, 0.19, 0.01, 2.23, 1.72, 7.77, repro,
2006-09-20,2.05, -0.11, -2.56, 2.11, 1.59, 7.12, repro,
2006-09-21,2.77, -0.73, 1.74, 2.34, 1.82, 8.14, repro,
2006-09-22,1.43, -0.98, 10.11, 2.40, 1.85, 8.36, repro,
2006-09-23,1.76, -1.35, -0.52, 2.35, 1.81, 8.18, repro,
2006-09-24,2.39, -0.40, -6.41, 2.21, 1.62, 7.49, repro,
2006-09-25,2.08, -0.86, -6.15, 2.21, 1.64, 7.52, repro,
2006-09-26,1.54, -0.54, -3.75, 2.16, 1.63, 7.33, repro,
2006-09-27,3.24, -0.19, -4.68, 2.24, 1.68, 7.69, repro,
2006-09-28,1.16, -0.68, -2.26, 2.19, 1.72, 7.54, repro,
2006-09-29,0.77, -2.13, -2.28, 2.18, 1.71, 7.47, repro,
2006-09-30,0.64, -0.46, 1.45, 2.15, 1.63, 7.32, repro,
2006-10-01,1.72, -0.38, 0.05, 2.14, 1.60, 7.23, repro,
2006-10-02,1.70, -0.68, -2.08, 2.17, 1.66, 7.33, repro,
2006-10-03,1.68, 1.28, -5.20, 2.19, 1.71, 7.53, repro,
2006-10-04,0.77, -0.21, -2.12, 2.14, 1.66, 7.34, repro,
2006-10-05,0.68, -0.45, -10.03, 2.11, 1.59, 7.14, repro,
2006-10-06,1.40, -0.35, -3.47, 2.14, 1.61, 7.27, repro,
2006-10-07,0.96, -1.95, -6.05, 2.28, 1.75, 7.90, repro,
2006-10-08,1.99, -0.57, -9.12, 2.21, 1.67, 7.61, repro,
2006-10-09,1.09, -0.58, -6.09, 2.19, 1.73, 7.59, repro,
2006-10-10,1.80, -0.84, -3.74, 2.12, 1.64, 7.27, repro,
2006-10-11,2.22, -1.70, -7.35, 2.17, 1.68, 7.47, repro,
2006-10-12,1.28, -0.44, 2.34, 2.12, 1.61, 7.17, repro,
2006-10-13,1.94, -0.50, -1.35, 2.06, 1.60, 7.06, repro,
2006-10-14,2.19, -0.67, -1.84, 2.11, 1.69, 7.39, repro,
2006-10-15,1.96, -1.17, 3.84, 2.08, 1.64, 7.18, repro,
2006-10-16,2.28, 0.92, 2.82, 2.08, 1.62, 7.16, repro,
2006-10-17,2.71, -0.84, 0.85, 2.22, 1.74, 7.86, repro,
2006-10-18,1.06, -0.75, -3.76, 2.08, 1.62, 7.12, repro,
2006-10-19,-0.28, -0.54, 2.73, 2.26, 1.75, 7.74, repro,
2006-10-20,1.49, -1.47, -5.88, 2.35, 1.89, 8.38, repro,
2006-10-21,2.27, -1.24, -7.87, 2.18, 1.68, 7.45, repro,
2006-10-22,3.31, -0.72, -8.19, 2.11, 1.67, 7.28, repro,
2006-10-23,2.68, -1.88, -13.36, 2.26, 1.75, 7.82, repro,
2006-10-24,0.93, -0.86, -2.15, 2.32, 1.83, 8.10, repro,
2006-10-25,0.96, 0.27, 5.17, 2.18, 1.73, 7.50, repro,
2006-10-26,2.32, -1.12, -5.14, 2.16, 1.73, 7.47, repro,
2006-10-27,1.88, -1.40, -10.33, 2.13, 1.71, 7.38, repro,
2006-10-28,0.17, -0.40, -6.64, 2.23, 1.79, 7.93, repro,
2006-10-29,1.23, -0.53, -1.28, 2.12, 1.68, 7.36, repro,
2006-10-30,1.32, -0.01, -0.73, 2.03, 1.60, 7.06, repro,
2006-10-31,0.61, -0.95, 0.37, 2.09, 1.68, 7.33, repro,
2006-11-01,2.21, -0.91, -7.22, 2.27, 1.80, 7.81, repro,
2006-11-02,1.06, 1.03, -6.66, 2.05, 1.62, 7.09, repro,
2006-11-03,1.33, 1.57, -4.78, 2.11, 1.67, 7.31, repro,